Regional Weather Roundup
Issued by NWS

Home | Current Version | Previous Version | Text Only | Print | Product List | Glossary Off
Versions: 1 2 3 4 5 6 7 8 9 10 11 12 13 14 15 16 17 18 19 20 21 22 23 24 25 26 27 28 29 30 31 32 33 34 35 36 37 38 39 40 41 42 43 44 45 46 47 48 49 50

000
ASUS43 KIND 291959
RWRIN

WEATHER ROUNDUP FOR INDIANA
NATIONAL WEATHER SERVICE INDIANAPOLIS IN
400 PM EDT TUE JUL 29 2014

NOTE: "FAIR" INDICATES FEW OR NO CLOUDS BELOW 12,000 FEET WITH NO
SIGNIFICANT WEATHER AND/OR OBSTRUCTIONS TO VISIBILITY.

* - STATION DOES NOT REPORT WEATHER SUCH AS PRECIPITATION OR FOG.

+ - STATION NOT QUALITY CONTROLLED BY THE NATIONAL WEATHER SERVICE.
    USE DATA WITH CAUTION...ESPECIALLY DEWPOINT AND RELATIVE
    HUMIDITY OBSERVATIONS.

INZ001>003-010>013-019-020-292100-
NORTHWEST INDIANA

CITY           SKY/WX    TMP DP  RH WIND       PRES   REMARKS
GARY /AIRPORT/ MOSUNNY   77  57  50 VRB7      30.03S
VALPARAISO     SUNNY     76  54  46 N8        30.03S

$$

LMZ046-743>745-292100-
SOUTHERN LAKE MICHIGAN

STATION/POSITION TIME  TEMP WIND        PRES
                       AIR  DIR/SP/G
                 (UTC) (F)  (DEG/KT/KT) (MB)
MICHIGAN CITY    1900   67  340/  5/  6   N/A

$$

INZ004-005-014>016-021>024-292100-
NORTH CENTRAL INDIANA

CITY           SKY/WX    TMP DP  RH WIND       PRES   REMARKS
ELKHART        PTSUNNY   75  54  46 NW12G17   30.02
GOSHEN         SUNNY     76  57  51 W17       30.00S
SOUTH BEND     MOSUNNY   75  54  47 NW15      30.03R

$$

INZ006>009-017-018-025>027-292100-
NORTHEAST INDIANA

CITY           SKY/WX    TMP DP  RH WIND       PRES   REMARKS
ANGOLA *+      PTSUNNY   75  57  53 W6        29.99F
FORT WAYNE     MOSUNNY   73  55  53 W10       30.02F

$$

INZ028-029-035-036-043>045-051>053-292100-
WEST CENTRAL INDIANA

CITY           SKY/WX    TMP DP  RH WIND       PRES   REMARKS
GREENCASTLE +  MOSUNNY   73  55  53 W3        30.08S
LAFAYETTE      PTSUNNY   77  57  50 W16G22    30.04S
TERRE HAUTE    PTSUNNY   76  57  51 NW8       30.08S

$$

INZ030>032-037>040-046>048-054>057-064-065-292100-
CENTRAL INDIANA

CITY           SKY/WX    TMP DP  RH WIND       PRES   REMARKS
ANDERSON       PTSUNNY   72  54  53 W6        30.06F
COLUMBUS       PTSUNNY   73  54  49 CALM      30.08S
INDIANAPOLIS   CLOUDY    73  53  49 W9        30.07S
-EAGLE CREEK   PTSUNNY   73  53  49 W5        30.05F
KOKOMO *+      PTSUNNY   73  57  56 W9        30.04S
MT COMFORT *+  SUNNY     75  55  50 W7        30.07S
SHELBYVILLE    CLOUDY    75  55  49 SW6       30.06F

$$

INZ033-034-041-042-049-050-058-059-292100-
EAST CENTRAL INDIANA

CITY           SKY/WX    TMP DP  RH WIND       PRES   REMARKS
MUNCIE         PTSUNNY   72  53  51 W9        30.05S

$$

INZ060-061-067>069-081>083-085>088-292100-
SOUTHWEST INDIANA

CITY           SKY/WX    TMP DP  RH WIND       PRES   REMARKS
EVANSVILLE     MOSUNNY   79  53  40 NW10      30.10F

$$

INZ062-063-066-070>080-084-089>092-292100-
SOUTH CENTRAL AND SOUTHEAST INDIANA

CITY           SKY/WX    TMP DP  RH WIND       PRES   REMARKS
BLOOMINGTON    CLOUDY    71  58  63 NW3       30.09S

$$




USA.gov is the U.S. government's official web portal to all federal, state and local government web resources and services.